This demonstration page uses our WeatherBlox Daily Observations layout. Learn more.

Left ArrowRight Arrow

Hourly Observations for August 2, 2015

Temp ( °F °C ) Dew Point ( °F °C ) Humidity (%) Winds ( mph kmh ) Pressure ( in mb ) Visibility ( mi km ) Precip ( " mm )
12:54 am 00:54 Clear 72 22.2 69 20.6 91 91 S 7 11 29.88 1012 10 16.0934 0 0
1:54 am 01:54 Clear 73 22.8 70 21.1 90 90 S 8 13 29.85 1011 10 16.0934 0 0
2:54 am 02:54 Clear 73 22.8 69 20.6 87 87 S 10 17 29.84 1011 10 16.0934 0 0
3:54 am 03:54 Clear 74 23.3 68 20 82 82 SSW 7 11 29.84 1010 10 16.0934 0 0
4:54 am 04:54 Clear 73 22.8 68 20 84 84 SW 9 15 29.83 1010 10 16.0934 0 0
5:54 am 05:54 Clear 72 22.2 68 20 87 87 SSW 7 11 29.82 1010 9 14.48406 0 0
6:54 am 06:54 Sunny 72 22.2 68 20 87 87 SSW 9 15 29.81 1010 8 12.87472 0 0
7:54 am 07:54 Sunny 77 25 69 20.6 77 77 NNW 6 9 29.85 1011 9 14.48406 0 0
8:54 am 08:54 Sunny 80 26.7 70 21.1 71 71 SW 12 19 29.85 1011 10 16.0934 0 0
9:54 am 09:54 Sunny 84 28.9 71 21.7 65 65 WSW 13 20 29.83 1010 10 16.0934 0 0
10:54 am 10:54 Sunny 87 30.6 72 22.2 61 61 SW 13 20 29.83 1010 10 16.0934 0 0
11:54 am 11:54 Sunny 90 32.2 72 22.2 56 56 WSW 12 19 29.83 1010 10 16.0934 0 0
12:54 pm 12:54 Sunny 93 33.9 71 21.7 49 49 SW 15 24 29.81 1010 10 16.0934 0 0
1:54 pm 13:54 Sunny 95 35 72 22.2 47 47 W 13 20 29.8 1009 10 16.0934 0 0
2:54 pm 14:54 Sunny 95 35 71 21.7 46 46 WSW 8 13 29.8 1009 10 16.0934 0 0
3:54 pm 15:54 Sunny 95 35 71 21.7 46 46 W 8 13 29.79 1009 10 16.0934 0 0
4:54 pm 16:54 Sunny 95 35 71 21.7 46 46 SW 13 20 29.77 1008 10 16.0934 0 0
5:54 pm 17:54 Sunny 92 33.3 73 22.8 54 54 SW 10 17 29.77 1008 10 16.0934 0 0
6:54 pm 18:54 Sunny 89 31.7 75 23.9 63 63 SW 9 15 29.78 1008 10 16.0934 0 0
7:54 pm 19:54 Mostly Sunny 88 31.1 74 23.3 63 63 W 15 24 29.75 1007 10 16.0934 0 0
8:54 pm 20:54 Clear 85 29.4 72 22.2 65 65 NE 10 17 29.78 1008 10 16.0934 0 0
9:54 pm 21:54 Clear 80 26.7 69 20.6 69 69 WNW 5 7 29.79 1009 10 16.0934 0 0
10:54 pm 22:54 Clear 77 25 62 16.7 60 60 NNE 3 6 29.83 1010 10 16.0934 0 0
11:54 pm 23:54 Clear 74 23.3 60 15.6 62 62 N 6 9 29.84 1010 10 16.0934 0 0

Powered by AerisWeather